When you browse on this site, cookies collect data to enhance your experience and personalize the content and advertising you see.
Visit our Privacy Policy to learn more. By continuing to use the site, you agree to this use of cookies and data.
  • In Österreich
  • Länderverzeichnis
  • Für 7 Tage
  • Wassertemperatur
  • Satellitenkarten
  • Wetterkarte
  • News
  • Widgets
  • user-avatar
    Anmelden

    Stündliche Wetter Alexandria

    Heute, 18 November, Sonntag

    Zeit Temperatur Niederschläge Wind Luftdruck Luftfeuchtigkeit
    00:00 +19°C° 0 mm 4 m/S 764 mmHg 69%
    01:00 +19°C° 0 mm 4 m/S 764 mmHg 71%
    02:00 +18°C° 0 mm 4 m/S 764 mmHg 72%
    03:00 +18°C° 0 mm 4 m/S 764 mmHg 73%
    04:00 +18°C° 0 mm 4 m/S 764 mmHg 74%
    05:00 +18°C° 0 mm 4 m/S 764 mmHg 76%
    06:00 +18°C° 0 mm 4 m/S 764 mmHg 73%
    07:00 +19°C° 0 mm 3 m/S 764 mmHg 71%
    08:00 +19°C° 0 mm 3 m/S 764 mmHg 69%
    09:00 +21°C° 0 mm 3 m/S 764 mmHg 62%
    10:00 +22°C° 0 mm 3 m/S 764 mmHg 55%
    11:00 +25°C° 0 mm 3 m/S 764 mmHg 47%
    12:00 +25°C° 0 mm 2 m/S 763 mmHg 44%
    13:00 +26°C° 0 mm 2 m/S 763 mmHg 40%
    14:00 +27°C° 0 mm 1 m/S 762 mmHg 37%
    15:00 +26°C° 0 mm 2 m/S 762 mmHg 41%
    16:00 +25°C° 0 mm 3 m/S 762 mmHg 46%
    17:00 +24°C° 0 mm 3 m/S 761 mmHg 50%
    18:00 +24°C° 0 mm 3 m/S 761 mmHg 56%
    19:00 +22°C° 0 mm 4 m/S 761 mmHg 62%
    20:00 +22°C° 0 mm 4 m/S 761 mmHg 68%
    21:00 +21°C° 0 mm 4 m/S 761 mmHg 69%
    22:00 +21°C° 0 mm 3 m/S 761 mmHg 71%
    23:00 +21°C° 0 mm 3 m/S 761 mmHg 72%

    Morgen, 19 November, Montag

    Zeit Temperatur Niederschläge Wind Luftdruck Luftfeuchtigkeit
    00:00 +20°C° 0 mm 3 m/S 761 mmHg 74%
    01:00 +20°C° 0 mm 2 m/S 761 mmHg 75%
    02:00 +19°C° 0 mm 2 m/S 761 mmHg 76%
    03:00 +20°C° 0 mm 1 m/S 761 mmHg 77%
    04:00 +20°C° 0 mm 1 m/S 761 mmHg 78%
    05:00 +20°C° 0 mm 1 m/S 761 mmHg 79%
    06:00 +20°C° 0 mm 1 m/S 761 mmHg 76%
    07:00 +21°C° 0 mm 1 m/S 762 mmHg 72%
    08:00 +21°C° 0 mm 1 m/S 762 mmHg 69%
    09:00 +23°C° 0 mm 1 m/S 762 mmHg 61%
    10:00 +24°C° 0 mm 1 m/S 762 mmHg 52%
    11:00 +26°C° 0 mm 1 m/S 763 mmHg 44%
    12:00 +26°C° 0 mm 1 m/S 762 mmHg 40%
    13:00 +27°C° 0 mm 1 m/S 762 mmHg 36%
    14:00 +27°C° 0 mm 1 m/S 762 mmHg 33%
    15:00 +26°C° 0 mm 2 m/S 762 mmHg 37%
    16:00 +25°C° 0 mm 2 m/S 762 mmHg 41%
    17:00 +25°C° 0 mm 2 m/S 762 mmHg 46%
    18:00 +24°C° 0 mm 2 m/S 762 mmHg 53%
    19:00 +23°C° 0 mm 2 m/S 763 mmHg 60%
    20:00 +21°C° 0 mm 2 m/S 763 mmHg 67%
    21:00 +21°C° 0 mm 3 m/S 763 mmHg 71%
    22:00 +21°C° 0 mm 3 m/S 763 mmHg 75%
    23:00 +20°C° 0 mm 3 m/S 764 mmHg 79%

    übermorgen, 20 November, Dienstag

    Zeit Temperatur Niederschläge Wind Luftdruck Luftfeuchtigkeit
    00:00 +20°C° 0 mm 3 m/S 764 mmHg 79%
    01:00 +20°C° 0 mm 3 m/S 764 mmHg 80%
    02:00 +19°C° 0 mm 3 m/S 764 mmHg 80%
    03:00 +19°C° 0 mm 3 m/S 764 mmHg 81%
    04:00 +19°C° 0 mm 3 m/S 764 mmHg 82%
    05:00 +19°C° 0 mm 3 m/S 764 mmHg 82%
    06:00 +19°C° 0 mm 3 m/S 764 mmHg 79%
    07:00 +20°C° 0 mm 3 m/S 765 mmHg 76%
    08:00 +20°C° 0 mm 3 m/S 765 mmHg 74%
    09:00 +22°C° 0 mm 3 m/S 765 mmHg 64%
    10:00 +25°C° 0 mm 3 m/S 765 mmHg 55%
    11:00 +26°C° 0 mm 3 m/S 765 mmHg 46%
    12:00 +27°C° 0 mm 3 m/S 765 mmHg 43%
    13:00 +28°C° 0 mm 2 m/S 764 mmHg 40%
    14:00 +29°C° 0 mm 2 m/S 764 mmHg 37%
    15:00 +28°C° 0 mm 3 m/S 764 mmHg 41%
    16:00 +27°C° 0 mm 3 m/S 764 mmHg 45%
    17:00 +26°C° 0 mm 4 m/S 764 mmHg 49%
    18:00 +25°C° 0 mm 4 m/S 764 mmHg 54%
    19:00 +23°C° 0 mm 4 m/S 764 mmHg 59%
    20:00 +22°C° 0 mm 5 m/S 764 mmHg 64%
    21:00 +21°C° 0 mm 4 m/S 764 mmHg 65%
    22:00 +21°C° 0 mm 4 m/S 765 mmHg 66%
    23:00 +20°C° 0 mm 4 m/S 765 mmHg 67%

    21 November, Mittwoch

    Zeit Temperatur Niederschläge Wind Luftdruck Luftfeuchtigkeit
    00:00 +20°C° 0 mm 4 m/S 764 mmHg 69%
    01:00 +20°C° 0 mm 4 m/S 764 mmHg 71%
    02:00 +19°C° 0 mm 3 m/S 764 mmHg 72%
    03:00 +19°C° 0 mm 3 m/S 764 mmHg 73%
    04:00 +19°C° 0 mm 3 m/S 764 mmHg 74%
    05:00 +18°C° 0 mm 2 m/S 763 mmHg 75%
    06:00 +19°C° 0 mm 3 m/S 764 mmHg 73%
    07:00 +19°C° 0 mm 3 m/S 764 mmHg 71%
    08:00 +20°C° 0 mm 3 m/S 764 mmHg 68%
    09:00 +23°C° 0 mm 2 m/S 764 mmHg 60%
    10:00 +24°C° 0 mm 2 m/S 764 mmHg 52%
    11:00 +26°C° 0 mm 2 m/S 764 mmHg 43%
    12:00 +27°C° 0 mm 2 m/S 763 mmHg 40%
    13:00 +28°C° 0 mm 2 m/S 763 mmHg 37%
    14:00 +28°C° 0 mm 2 m/S 762 mmHg 34%
    15:00 +27°C° 0 mm 2 m/S 762 mmHg 39%
    16:00 +26°C° 0 mm 2 m/S 762 mmHg 43%
    17:00 +25°C° 0 mm 3 m/S 762 mmHg 48%
    18:00 +24°C° 0 mm 3 m/S 763 mmHg 52%
    19:00 +24°C° 0 mm 2 m/S 763 mmHg 56%
    20:00 +23°C° 0 mm 2 m/S 763 mmHg 61%
    21:00 +23°C° 0 mm 2 m/S 763 mmHg 62%
    22:00 +23°C° 0 mm 2 m/S 763 mmHg 62%
    23:00 +21°C° 0 mm 2 m/S 763 mmHg 63%

    22 November, Donnerstag

    Zeit Temperatur Niederschläge Wind Luftdruck Luftfeuchtigkeit
    00:00 +21°C° 0 mm 2 m/S 762 mmHg 62%
    01:00 +21°C° 0 mm 3 m/S 762 mmHg 62%
    02:00 +21°C° 0 mm 4 m/S 762 mmHg 61%
    03:00 +21°C° 0 mm 3 m/S 762 mmHg 60%
    04:00 +21°C° 0 mm 3 m/S 761 mmHg 60%
    05:00 +20°C° 0 mm 2 m/S 761 mmHg 60%
    06:00 +21°C° 0 mm 2 m/S 762 mmHg 58%
    07:00 +21°C° 0 mm 2 m/S 762 mmHg 55%
    08:00 +23°C° 0 mm 2 m/S 762 mmHg 53%
    09:00 +24°C° 0 mm 3 m/S 762 mmHg 47%
    10:00 +26°C° 0 mm 3 m/S 762 mmHg 42%
    11:00 +28°C° 0 mm 4 m/S 762 mmHg 36%
    12:00 +27°C° 0 mm 4 m/S 762 mmHg 39%
    13:00 +27°C° 0 mm 5 m/S 761 mmHg 43%
    14:00 +27°C° 0 mm 6 m/S 761 mmHg 46%
    15:00 +26°C° 0 mm 6 m/S 761 mmHg 52%
    16:00 +24°C° 0 mm 6 m/S 761 mmHg 58%
    17:00 +23°C° 0 mm 5 m/S 761 mmHg 64%
    18:00 +22°C° 0 mm 5 m/S 761 mmHg 65%
    19:00 +22°C° 0 mm 5 m/S 762 mmHg 67%
    20:00 +21°C° 0 mm 5 m/S 762 mmHg 68%
    21:00 +21°C° 0 mm 5 m/S 762 mmHg 69%
    22:00 +21°C° 0 mm 5 m/S 762 mmHg 69%
    23:00 +21°C° 0 mm 5 m/S 762 mmHg 70%

    23 November, Freitag

    Zeit Temperatur Niederschläge Wind Luftdruck Luftfeuchtigkeit
    00:00 +21°C° 0 mm 5 m/S 762 mmHg 70%
    01:00 +20°C° 0 mm 5 m/S 762 mmHg 71%
    02:00 +20°C° 0 mm 5 m/S 762 mmHg 72%
    03:00 +20°C° 0 mm 5 m/S 762 mmHg 73%
    04:00 +20°C° 0 mm 5 m/S 762 mmHg 73%
    05:00 +20°C° 0 mm 6 m/S 762 mmHg 74%
    06:00 +20°C° 0 mm 6 m/S 762 mmHg 71%
    07:00 +21°C° 0 mm 6 m/S 762 mmHg 68%
    08:00 +21°C° 0 mm 7 m/S 762 mmHg 65%
    09:00 +22°C° 0 mm 7 m/S 762 mmHg 61%
    10:00 +23°C° 0 mm 7 m/S 762 mmHg 57%
    11:00 +23°C° 0 mm 8 m/S 762 mmHg 53%
    12:00 +23°C° 0 mm 8 m/S 762 mmHg 53%
    13:00 +23°C° 0 mm 8 m/S 761 mmHg 53%
    14:00 +23°C° 0 mm 9 m/S 761 mmHg 53%
    15:00 +23°C° 0.1 mm 8 m/S 761 mmHg 56%
    16:00 +22°C° 0.1 mm 8 m/S 761 mmHg 59%
    17:00 +21°C° 0.1 mm 8 m/S 761 mmHg 62%
    18:00 +21°C° 0.1 mm 8 m/S 762 mmHg 63%
    19:00 +21°C° 0.1 mm 8 m/S 762 mmHg 65%
    20:00 +21°C° 0.1 mm 8 m/S 762 mmHg 67%
    21:00 +20°C° 0.1 mm 8 m/S 762 mmHg 68%
    22:00 +20°C° 0.1 mm 8 m/S 762 mmHg 68%
    23:00 +20°C° 0.1 mm 8 m/S 762 mmHg 69%
    Mehr zeigen